TimeMST,TemperatureF,Dew PointF,Humidity,Sea Level PressureIn,VisibilityMPH,Wind Direction,Wind SpeedMPH,Gust SpeedMPH,PrecipitationIn,Events,Conditions,WindDirDegrees,DateUTC
12:53 AM,19.9,16.0,85,29.84,10.0,Calm,Calm,-,0.00,,Overcast,0,2012-12-16 07:53:00
1:53 AM,19.9,16.0,85,29.86,5.0,Calm,Calm,-,0.00,Snow,Light Snow,0,2012-12-16 08:53:00
1:56 AM,19.4,15.8,86,29.76,1.5,Calm,Calm,-,N/A,Snow,Light Snow,0,2012-12-16 08:56:00
1:58 AM,19.4,17.6,93,29.76,0.5,Calm,Calm,-,0.01,Fog-Snow,Snow,0,2012-12-16 08:58:00
2:06 AM,19.4,17.6,93,29.76,0.2,Calm,Calm,-,0.03,Fog-Snow,Heavy Snow,0,2012-12-16 09:06:00
2:14 AM,19.4,17.6,93,29.76,1.2,East,3.5,-,0.03,Snow,Light Snow,100,2012-12-16 09:14:00
2:19 AM,19.4,17.6,93,29.76,3.0,East,3.5,-,0.03,Snow,Light Snow,80,2012-12-16 09:19:00
2:23 AM,19.4,17.6,93,29.76,5.0,Calm,Calm,-,N/A,Snow,Light Snow,0,2012-12-16 09:23:00
2:53 AM,19.9,17.1,89,29.87,8.0,Calm,Calm,-,0.03,,Overcast,0,2012-12-16 09:53:00
3:53 AM,19.9,17.1,89,29.86,10.0,Calm,Calm,-,N/A,,Overcast,0,2012-12-16 10:53:00
4:53 AM,21.0,18.0,88,29.87,5.0,Calm,Calm,-,0.00,Snow,Light Snow,0,2012-12-16 11:53:00
5:53 AM,21.0,18.0,88,29.88,10.0,Calm,Calm,-,0.00,,Overcast,0,2012-12-16 12:53:00
6:53 AM,19.9,17.1,89,29.91,10.0,Calm,Calm,-,N/A,,Overcast,0,2012-12-16 13:53:00
7:53 AM,19.9,17.1,89,29.93,9.0,Calm,Calm,-,N/A,,Overcast,0,2012-12-16 14:53:00
8:53 AM,19.9,18.0,92,29.94,9.0,Calm,Calm,-,N/A,,Mostly Cloudy,0,2012-12-16 15:53:00
9:11 AM,21.2,19.4,93,29.82,2.0,WNW,4.6,-,0.00,Snow,Light Snow,290,2012-12-16 16:11:00
9:14 AM,23.0,19.4,86,29.82,1.0,WNW,4.6,-,0.00,Snow,Light Snow,300,2012-12-16 16:14:00
9:40 AM,24.8,21.2,86,29.82,1.0,West,11.5,-,0.00,Snow,Light Snow,270,2012-12-16 16:40:00
9:49 AM,24.8,21.2,86,29.83,1.2,West,9.2,-,0.00,Snow,Light Snow,270,2012-12-16 16:49:00
9:53 AM,25.0,21.0,85,29.95,1.5,West,10.4,-,0.00,Snow,Light Snow,270,2012-12-16 16:53:00
10:01 AM,24.8,21.2,86,29.83,2.5,WNW,8.1,-,0.00,Snow,Light Snow,290,2012-12-16 17:01:00
10:09 AM,24.8,21.2,86,29.83,4.0,West,6.9,-,0.00,Snow,Light Snow,280,2012-12-16 17:09:00
10:53 AM,27.0,21.9,81,29.95,10.0,West,9.2,-,0.00,,Overcast,270,2012-12-16 17:53:00
11:18 AM,28.4,21.2,74,29.82,1.8,West,10.4,-,0.00,Snow,Light Snow,280,2012-12-16 18:18:00
11:27 AM,26.6,21.2,80,29.82,1.2,West,10.4,-,0.00,Snow,Light Snow,280,2012-12-16 18:27:00
11:53 AM,28.0,21.9,78,29.94,1.5,West,11.5,18.4,0.00,Snow,Light Snow,270,2012-12-16 18:53:00
12:04 PM,28.4,23.0,80,29.81,3.0,West,11.5,-,0.00,Snow,Light Snow,270,2012-12-16 19:04:00
12:53 PM,28.9,19.0,67,29.93,10.0,West,12.7,23.0,0.00,,Overcast,260,2012-12-16 19:53:00
1:53 PM,30.9,19.0,61,29.91,10.0,West,15.0,-,N/A,,Overcast,260,2012-12-16 20:53:00
2:53 PM,30.0,17.1,59,29.94,10.0,West,19.6,-,N/A,,Overcast,260,2012-12-16 21:53:00
3:53 PM,28.9,17.1,61,29.96,10.0,West,8.1,-,N/A,,Overcast,260,2012-12-16 22:53:00
4:53 PM,26.1,16.0,66,29.98,10.0,WSW,10.4,-,N/A,,Overcast,250,2012-12-16 23:53:00
5:53 PM,25.0,16.0,69,30.00,10.0,Calm,Calm,-,N/A,,Mostly Cloudy,0,2012-12-17 00:53:00
6:53 PM,21.0,15.1,78,30.04,10.0,Calm,Calm,-,N/A,,Overcast,0,2012-12-17 01:53:00
7:53 PM,18.0,14.0,84,30.05,10.0,West,3.5,-,N/A,,Partly Cloudy,280,2012-12-17 02:53:00
8:53 PM,19.9,12.9,74,30.04,10.0,West,8.1,-,N/A,,Clear,260,2012-12-17 03:53:00
9:53 PM,19.0,12.9,77,30.03,10.0,West,6.9,-,N/A,,Partly Cloudy,270,2012-12-17 04:53:00
10:53 PM,27.0,16.0,63,29.99,10.0,SW,13.8,-,N/A,,Scattered Clouds,230,2012-12-17 05:53:00
11:53 PM,28.0,16.0,61,29.98,10.0,SW,12.7,-,N/A,,Overcast,230,2012-12-17 06:53:00